Location: Lane
(33.5226°N, 79.8788°W)
Time: 21:15:11
(UTC+00:00)

Vanguard 2 Rocket - Pass Details

Date: 12 October 2022
Orbit: 555 x 3321 km, 32.9° (Epoch: 28 November)

Event Time Altitude Azimuth Distance (km) Brightness Sun altitude
Rises 03:32:15 0° 267° (W) 7,272 11.8 -56.0°
Reaches altitude 10° 03:37:23 10° 268° (W) 6,122 11.3 -56.8°
Enters shadow 03:48:16 41° 268° (W) 3,617 9.8 -58.3°
